#timestamp,LO_Frequency,Hit,StdDev 
1626418815.2,286047003.1,N
1626418835.1,286047002.9,N
1626418855.8,286047003.4,N
1626418875.7,286047006.0,N
1626418895.5,286047003.2,N
1626418915.4,286047003.5,N
1626418935.2,286047003.2,N
1626418955.0,286047003.3,N
1626418955.9,286047003.3,N
1626418975.8,286047005.6,Y
1626418995.6,286047001.8,P
1626419015.5,286047001.6,P
1626419035.3,286047002.5,P
1626419055.1,286047001.8,Y
1626419075.9,286046999.8,P
1626419095.7,286047000.4,N
1626419115.6,286047000.7,N
1626419135.4,286047001.2,N
1626419155.2,286047000.8,N
1626419175.1,286046998.1,N
1626419176.0,286046998.1,N
1626419195.8,286047001.0,N
1626419215.6,286047000.9,N
1626419235.5,286047000.9,N
1626419255.3,286047000.1,N
1626419275.1,286047000.1,N
1626419295.9,286047002.8,N
1626419315.7,286047000.3,N
1626419335.6,286047001.0,N
1626419355.4,286046999.8,N
1626419375.2,286046999.7,N
1626419395.1,286047000.1,N
1626419396.0,286047000.1,N
1626419415.8,286047000.0,N
1626419435.6,286047000.0,N
1626419455.5,286047001.0,N
1626419475.3,286047000.8,N
1626419495.2,286046998.3,N
1626419515.0,286046996.6,Y
1626419515.9,286046996.6,P
1626419535.8,286046997.3,N
1626419555.6,286046994.9,P
1626419575.4,286046997.6,N
1626419595.3,286046995.3,N
1626419615.1,286046995.0,N
1626419635.8,286046997.7,N
1626419655.7,286046996.8,N
1626419675.5,286046996.7,N
1626419695.4,286046997.7,N
1626419715.4,286046997.5,N
1626419735.3,286046995.0,Y
1626419755.1,286047000.9,P
1626419775.9,286047002.2,N
1626419795.7,286047000.3,N
1626419815.5,286047000.0,N
1626419835.4,286047002.8,N
1626419855.2,286046999.8,N
1626419875.0,286047001.9,N
1626419875.9,286047001.9,N
1626419895.8,286047001.8,N
1626419915.6,286047001.9,N
1626419935.5,286047001.5,N
1626419955.3,286047002.6,N
1626419975.1,286047002.0,N
1626419995.9,286047004.4,N
1626420015.7,286047003.7,N
1626420035.6,286047003.3,N
1626420055.4,286047005.4,Y
1626420075.3,286047001.7,P
1626420095.1,286047002.2,P
1626420115.8,286046999.8,N
1626420135.7,286046998.1,N
1626420155.5,286047001.1,N
1626420175.4,286047001.1,N
1626420195.2,286047001.1,N
1626420215.0,286047001.1,N
1626420215.9,286047001.1,N
1626420235.8,286046998.6,N
1626420255.6,286046999.5,N
1626420275.4,286046996.8,N
1626420295.3,286046995.8,N
1626420315.1,286046995.5,N
1626420335.9,286046997.7,N
1626420355.7,286046999.1,N
1626420375.5,286047001.2,N
1626420395.4,286047001.2,N
1626420415.2,286047000.0,N
1626420435.0,286047002.7,N
1626420435.9,286047002.7,N
1626420455.8,286047000.0,N
1626420475.6,286047002.5,N
1626420495.4,286047002.2,N
1626420515.3,286047000.1,N
1626420535.1,286047002.3,N
1626420555.9,286047002.1,N
1626420575.7,286047002.1,N
1626420595.6,286047002.3,N
1626420615.4,286047002.6,N
1626420635.2,286047002.3,N
1626420655.1,286046999.9,N
1626420656.0,286046999.9,N
1626420675.8,286046998.3,N
1626420695.6,286046998.5,N
1626420715.5,286047000.9,N
1626420735.3,286046999.8,N
1626420755.2,286047000.0,N
1626420775.9,286046999.8,N
1626420795.7,286046999.7,N
1626420815.6,286047002.7,N
1626420835.4,286047000.5,N
1626420855.2,286047000.4,N
1626420875.1,286047000.1,N
1626420876.0,286047000.1,N
1626420895.8,286047000.0,N
1626420915.7,286047000.4,N
1626420935.5,286046998.6,N
1626420955.3,286047000.0,N
1626420975.2,286046999.8,N
1626420995.0,286047000.3,N
1626420995.9,286047000.3,N
1626421015.7,286047000.6,N
1626421035.6,286047000.5,N
1626421055.4,286047000.3,N
1626421075.3,286046999.9,N
1626421095.1,286047002.6,N
1626421115.8,286046999.7,N
1626421135.7,286047000.3,N
1626421155.5,286046999.9,N
1626421175.4,286047000.1,N
1626421195.2,286047000.3,N
1626421215.0,286047000.9,N
1626421215.9,286047000.9,N
1626421235.8,286046999.9,N
1626421255.6,286046999.8,N
1626421275.4,286046999.8,N
1626421295.3,286047002.8,Y
1626421315.1,286047002.2,P
1626421335.9,286047002.8,N
1626421355.7,286047002.0,N
1626421375.5,286047002.4,N
1626421395.4,286047002.6,N
1626421415.2,286047001.5,N
1626421435.1,286047004.4,Y
1626421436.0,286047004.4,P
1626421455.8,286047000.4,N
1626421475.6,286047000.5,N
1626421495.5,286046999.9,N
1626421515.3,286046998.4,N
1626421535.2,286046998.7,N
1626421555.9,286046999.1,N
1626421575.7,286046999.3,N
1626421595.6,286046999.3,N
1626421615.4,286046999.6,N
1626421635.2,286046999.5,N
1626421655.1,286046999.5,N
1626421656.0,286046999.5,N
1626421675.8,286046998.8,N
1626421695.7,286046999.3,N
1626421715.5,286046999.4,N
1626421735.3,286046997.1,N
1626421755.2,286046996.9,N
1626421775.0,286046999.4,N
1626421775.9,286046999.4,N
1626421795.8,286046996.5,N
1626421815.6,286046998.9,N
1626421835.4,286046998.8,N
1626421855.3,286046999.2,N
1626421875.1,286046996.6,N
1626421895.9,286046999.6,N
1626421915.7,286046999.3,N
1626421935.5,286046998.4,N
1626421955.4,286046998.8,N
1626421975.2,286046998.8,N
1626421995.1,286046999.3,N
1626421996.0,286046999.3,N
1626422015.8,286046998.7,N
1626422035.6,286046999.4,N
1626422055.5,286046998.4,N
1626422075.3,286046998.3,N
1626422095.2,286046996.5,Y
1626422115.9,286047000.3,P
1626422135.8,286047001.0,N
1626422155.6,286047000.6,N
1626422175.4,286047000.9,N
1626422195.3,286047000.6,N
1626422215.1,286047000.7,N
1626422216.0,286047000.7,N
1626422235.8,286046998.9,N
1626422255.7,286047001.1,N
1626422275.5,286046998.4,N
1626422295.3,286047000.5,N
1626422315.2,286046998.5,N
1626422335.0,286047001.1,N
1626422335.9,286047001.1,N
1626422355.8,286046998.5,N
1626422375.6,286047000.8,N
1626422395.4,286047001.2,N
